Weather History for Molokai, HI

Change the Weather History Date:

Friday, September 13, 2013

  Actual Average Record
Temperature  
Mean Temperature 78 °F -  
Max Temperature 84 °F 85 °F 90 °F (1979)
Min Temperature 73 °F 71 °F 67 °F (1973)
Cooling Degree Days 14    
Growing Degree Days 28 (Base 50)    
Moisture  
Dew Point 71 °F    
Average Humidity 81    
Maximum Humidity 100    
Minimum Humidity 57    
Precipitation  
Precipitation 0.00 in - - ()
Sea Level Pressure  
Sea Level Pressure 29.93 in    
Wind  
Wind Speed 11 mph (NE)    
Max Wind Speed 21 mph    
Max Gust Speed 28 mph    
Visibility 10 miles    
Events      
Averages and records for this station are not official NWS values.
T = Trace of Precipitation, MM = Missing Value Source: NWS Daily Summary

Daily Weather History Graph

Daily Weather History Graph

Search for Another Location

Airport:

Trip Planner

Search our weather history database for the weather conditions in past years. The results will help you decide how hot, cold, wet, or windy it might be!

Date:

Astronomy

Sep. 13, 2013 Rise Set
Actual Time 6:15 AM HST 6:32 PM HST
Civil Twilight 5:52 AM HST 6:55 PM HST
Nautical Twilight 5:26 AM HST 7:20 PM HST
Astronomical Twilight 5:00 AM HST 7:47 PM HST
Moon 2:02 PM HST (9/13) 12:27 AM HST (9/13)
Length of Visible Light 13h 02m
Length of Day
12h 17m
Waxing Gibbous, 64% of the Moon is Illuminated
Sep 13
Waxing Gibbous
Sep 19
Full
Sep 26
Last Quarter
Oct 4
New
Oct 11
First Quarter

Hourly Weather History & Observations

Time (HST) Temp. Heat Index Dew Point Humidity Pressure Visibility Wind Dir Wind Speed Gust Speed Precip Events Conditions
12:54 AM 73.0 °F - 73.0 °F 100% 29.96 in 10.0 mi NNE 11.5 mph - 0.00 in   Mostly Cloudy
1:54 AM 73.0 °F - 71.1 °F 93% 29.94 in 10.0 mi North 6.9 mph - N/A   Mostly Cloudy
2:54 AM 73.0 °F - 73.0 °F 100% 29.92 in 10.0 mi NE 5.8 mph - N/A   Mostly Cloudy
3:54 AM 73.0 °F - 73.0 °F 100% 29.91 in 10.0 mi NNE 9.2 mph - N/A   Overcast
4:54 AM 73.9 °F - 72.0 °F 93% 29.93 in 10.0 mi ENE 13.8 mph 23.0 mph N/A   Overcast
5:54 AM 73.9 °F - 72.0 °F 93% 29.93 in 10.0 mi NE 8.1 mph 16.1 mph N/A   Scattered Clouds
6:54 AM 75.0 °F - 71.1 °F 87% 29.94 in 10.0 mi NNE 11.5 mph - N/A   Overcast
7:01 AM 75.2 °F - 71.6 °F 89% 29.94 in 10.0 mi NNE 11.5 mph 18.4 mph N/A   Scattered Clouds
7:54 AM 77.0 °F - 71.1 °F 82% 29.95 in 10.0 mi NE 10.4 mph 25.3 mph N/A   Scattered Clouds
8:54 AM 79.0 °F - 70.0 °F 74% 29.96 in 10.0 mi ENE 18.4 mph 23.0 mph N/A   Scattered Clouds
9:54 AM 82.0 °F 85.9 °F 70.0 °F 67% 29.96 in 10.0 mi NE 12.7 mph 19.6 mph N/A   Clear
10:54 AM 82.0 °F 86.3 °F 71.1 °F 69% 29.95 in 10.0 mi NNE 15.0 mph 25.3 mph N/A   Partly Cloudy
11:54 AM 84.0 °F 88.4 °F 70.0 °F 63% 29.93 in 10.0 mi NE 17.3 mph 26.5 mph N/A   Clear
12:54 PM 84.9 °F 90.7 °F 72.0 °F 65% 29.91 in 10.0 mi NE 20.7 mph 27.6 mph N/A   Partly Cloudy
1:54 PM 84.9 °F 88.2 °F 68.0 °F 57% 29.89 in 10.0 mi NNE 13.8 mph 26.5 mph N/A   Partly Cloudy
2:54 PM 82.9 °F 87.5 °F 71.1 °F 67% 29.89 in 10.0 mi NNE 11.5 mph 26.5 mph N/A   Scattered Clouds
3:54 PM 82.0 °F 86.3 °F 71.1 °F 69% 29.89 in 10.0 mi NE 16.1 mph 23.0 mph N/A   Partly Cloudy
4:54 PM 81.0 °F 84.9 °F 71.1 °F 72% 29.89 in 10.0 mi NE 16.1 mph 24.2 mph N/A   Partly Cloudy
5:54 PM 78.1 °F - 71.1 °F 79% 29.91 in 10.0 mi NNE 11.5 mph 20.7 mph N/A   Clear
6:54 PM 75.9 °F - 71.1 °F 85% 29.93 in 10.0 mi NNE 11.5 mph 18.4 mph N/A   Mostly Cloudy
7:54 PM 75.9 °F - 70.0 °F 82% 29.95 in 10.0 mi NE 9.2 mph - N/A   Scattered Clouds
8:54 PM 75.0 °F - 69.1 °F 82% 29.96 in 10.0 mi NNE 6.9 mph - N/A   Clear
9:54 PM 75.0 °F - 70.0 °F 84% 29.96 in 10.0 mi NE 8.1 mph - N/A   Clear
10:54 PM 75.0 °F - 72.0 °F 90% 29.96 in 10.0 mi Variable 6.9 mph 16.1 mph N/A   Clear
11:54 PM 75.0 °F - 72.0 °F 90% 29.94 in 10.0 mi NE 8.1 mph - N/A   Partly Cloudy